Regional Weather Roundup
Issued by NWS

Home | Current Version | Previous Version | Graphics & Text | Print | Product List | Glossary Off
Versions: 1 2 3 4 5 6 7 8 9 10 11 12 13 14 15 16 17 18 19 20 21 22 23 24 25 26 27 28 29 30 31 32 33 34 35 36 37 38 39 40 41 42 43 44 45 46 47 48 49 50

370
ASUS43 KMKX 160820
RWRWI

WISCONSIN REGIONAL WEATHER ROUNDUP
NATIONAL WEATHER SERVICE MILWAUKEE/SULLIVAN WI
200 AM CST MON JAN 16 2017

NOTE: "FAIR" INDICATES FEW OR NO CLOUDS BELOW 12,000 FEET WITH NO
SIGNIFICANT WEATHER AND/OR OBSTRUCTIONS TO VISIBILITY.

WIZ001-002-006>008-014>016-023>028-160900-
NORTHWEST WISCONSIN

CITY           SKY/WX    TMP DP  RH WIND       PRES   REMARKS
SUPERIOR ARPT  CLOUDY    18  15  89 SW6       30.17R WCI  10
ASHLAND        CLOUDY    20  14  77 S8        30.17R WCI  10
HAYWARD        CLOUDY     5  -1  76 CALM      30.18R
SIREN          CLOUDY     5   2  86 CALM      30.19R
CUMBERLAND     CLOUDY     9   5  85 CALM      30.19R FOG
RICE LAKE      CLOUDY    -1  -5  83 CALM      30.22R
CHETEK         CLOUDY     1  -2  85 CALM      30.21S
LADYSMITH      CLOUDY     5   2  88 CALM      30.22S
EAU CLAIRE     CLOUDY     7   5  91 CALM      30.22S FOG
MENOMONIE      CLOUDY     7   3  85 CALM      30.22S FOG
NEW RICHMOND   CLOUDY    14  13  94 SE3       30.20R
OSCEOLA        CLOUDY    17  14  86 SE6       30.23S WCI   9
$$

WIZ003>005-009-010-017-018-160900-
NORTH CENTRAL WISCONSIN

CITY           SKY/WX    TMP DP  RH WIND       PRES   REMARKS
MANITOWISH WTR CLOUDY    13  11  92 S7        30.16R WCI   2
ARBOR VITAE    CLOUDY    11   8  88 S3        30.17S
WOODRUFF       CLOUDY    11   8  88 S3        30.17S
RHINELANDER    CLOUDY    12   9  87 W5        30.18R WCI   4
EAGLE RIVER    CLOUDY    12   7  81 CALM      30.15S
LAND O LAKES   CLOUDY     4   1  87 SW3       30.16S
PHILLIPS       CLOUDY     6   5  96 CALM      30.18R
TOMAHAWK       CLOUDY     0  -3  86 CALM      30.20R
MEDFORD        CLOUDY    13   9  85 SW3       30.19R
MERRILL        CLOUDY    -5  -9  82 CALM        N/A
$$

WIZ029-030-035-036-043>047-160900-
CENTRAL WISCONSIN

CITY           SKY/WX    TMP DP  RH WIND       PRES   REMARKS
WAUSAU         CLOUDY     4   1  88 CALM      30.21S
MOSINEE        CLOUDY    10  10 100 CALM      30.23S FOG
MARSHFIELD     CLOUDY    16  11  80 SW5       30.20S WCI   9
STEVENS POINT  CLOUDY     0  -3  86 CALM      30.24S
WAUPACA        CLOUDY     9   5  84 CALM      30.26S
WAUTOMA        CLOUDY     8   5  87 CALM      30.27S
WISC RAPIDS    CLOUDY     8   5  87 CALM      30.25S
CAMP DOUGLAS   CLOUDY    12   9  88 CALM      30.23F
$$

WIZ011>013-019>022-031-037>040-048>050-160900-
NORTHEAST WISCONSIN

CITY           SKY/WX    TMP DP  RH WIND       PRES   REMARKS
ANTIGO         CLOUDY    -2  -5  87 CALM      30.20S
SHAWANO        CLOUDY    11   8  85 CALM      30.25S
OCONTO         CLOUDY     8   5  88 CALM      30.25S
STURGEON BAY   CLOUDY    21  14  74 SW9       30.25S WCI  11
GREEN BAY      CLOUDY    17  13  84 SW6       30.26S WCI   9
MANITOWOC      CLOUDY    11   7  84 CALM      30.28R
APPLETON       CLOUDY    21  12  68 SW7       30.23S WCI  13
CLINTONVILLE   CLOUDY     7   3  85 CALM      30.25S
OSHKOSH        CLOUDY    21  14  74 SW5       30.26S WCI  15
$$

WIZ032>034-041-042-053>061-160900-
SOUTHWEST WISCONSIN

CITY           SKY/WX    TMP DP  RH WIND       PRES   REMARKS
LA CROSSE      CLOUDY   N/A N/A N/A SE6       30.25F
SPARTA         CLOUDY     8   6  92 CALM      30.26S
VIROQUA        CLOUDY    26  18  73 CALM      30.21F
BOSCOBEL       PTCLDY    24  19  81 CALM      30.28R
PRAIRIE DU CHI CLOUDY    24  18  80 CALM      30.27R
PLATTEVILLE    CLOUDY    29  20  69 SE6       30.25R WCI  23
$$

WIZ056-057-062-063-064-067-068-160900-
SOUTH CENTRAL WISCONSIN

CITY           SKY/WX    TMP DP  RH WIND       PRES   REMARKS
REEDSBURG      CLOUDY    16  15  95 CALM      30.25F
BARABOO/DELLS  CLOUDY    18  14  85 CALM      30.25S
LONE ROCK      CLOUDY    21  17  84 CALM      30.27F
MINERAL POINT  CLOUDY    30  21  69 CALM      30.24S
MADISON        CLOUDY    20  17  88 CALM      30.26S
MIDDLETON      CLOUDY    23  21  92 CALM      30.26S
WATERTOWN      CLOUDY    20  19  96 CALM      30.27S
MONROE         PTCLDY    28  21  74 CALM      30.25R
JANESVILLE     CLOUDY    27  23  86 CALM      30.26F
$$

WIZ051-052-058>065-066-070>072-160900-
SOUTHEAST WISCONSIN

CITY           SKY/WX    TMP DP  RH WIND       PRES   REMARKS
MILWAUKEE      CLOUDY    24  17  74 CALM      30.28S
WAUKESHA       PTCLDY    21  18  86 CALM      30.28S
MILWAUKEE/TIMM PTCLDY    23  18  80 CALM      30.29S
RACINE         CLOUDY    24  18  77 CALM      30.30S
KENOSHA        CLOUDY    25  19  78 CALM      30.28S HAZE
FOND DU LAC    CLOUDY    17  11  77 S3        30.27R
SHEBOYGAN      CLOUDY    14   8  77 CALM      30.27S
WEST BEND      CLOUDY    16  14  93 CALM      30.27S
JUNEAU         PTCLDY    20  16  84 SE3       30.28R
$$

LSZ147-162-160900-
LAKE SUPERIOR

STATION/POSITION TIME  TEMP    WIND        PRES    WAVE
                       AIR SEA DIR/SP/G            HT/PER
                 (UTC) (F)     (DEG/KT/KT) (MB)    (FT/S)
DEVILS ISLAND    0800   27     220/ 17/ 22 1021.7R
PORT WING        0740   23     190/  6/ 10 1021.3R
SAXON HARBOR     0740   25     200/ 10/ 15 1021.0F
$$

LMZ867-665-643>646-160900-
LAKE MICHIGAN

STATION/POSITION TIME  TEMP    WIND        PRES    WAVE
                       AIR SEA DIR/SP/G            HT/PER
                 (UTC) (F)     (DEG/KT/KT) (MB)    (FT/S)
NORTHPORT PIER   0804   24     210/  3/  7 1024.0S
SISTER BAY       0635   24     230/  7/  9   N/A
KEWAUNEE LAKESHO 0754   18     300/  4/  5 1024.4S
SHEBOYGAN LAKESH 0800   24     220/  4/  5 1026.2R
PORT WASHINGTON  0730   22     240/  2/  3 1026.4S
MILWAUKEE LAKESH 0800   30     230/  6/  6   N/A
KENOSHA   LAKESH 0800   29        CALM     1025.7
$$

TC  - TEMPERATURE IN CELSIUS
VSB - VISIBILITY IN STATUTE MILES
WCI - WIND CHILL INDEX
HX  - HEAT INDEX





USA.gov is the U.S. government's official web portal to all federal, state and local government web resources and services.